This is the latest recevied weather packets stored in our database for station/object WX7FGZ-6. If no packets are shown the sender has not sent any weather packets the latest 1 day(s).
| Time | Temp. | Humidity | Pressure | Rain* | Wind** | Luminosity | Snow |
|---|---|---|---|---|---|---|---|
| 1778023651 | -4.44° C | 91% | 1011.6 hPa | 0 mm | 1.79 m/s, 167° | - | - |
| 1778023352 | -4.44° C | 91% | 1011.4 hPa | 0 mm | 3.13 m/s, 180° | - | - |
| 1778023052 | -4.44° C | 91% | 1011.4 hPa | 0 mm | 2.68 m/s, 168° | - | - |
| 1778022751 | -4.44° C | 91% | 1011.3 hPa | 0 mm | 2.24 m/s, 174° | - | - |
| 1778022451 | -3.89° C | 91% | 1011.4 hPa | 0 mm | 2.24 m/s, 174° | - | - |
| 1778022293 | -3.89° C | 91% | 1011.5 hPa | 0 mm | 2.24 m/s, 176° | - | - |
| 1778022151 | -3.89° C | 91% | 1011.5 hPa | 0 mm | 2.24 m/s, 176° | - | - |
| 1778021852 | -3.89° C | 91% | 1011.4 hPa | 0 mm | 3.13 m/s, 176° | - | - |
| 1778021551 | -3.89° C | 91% | 1011.2 hPa | 0 mm | 2.24 m/s, 177° | - | - |
| 1778021251 | -3.89° C | 91% | 1011.1 hPa | 0 mm | 2.24 m/s, 181° | - | - |
| 1778020651 | -4.44° C | 91% | 1011 hPa | 0 mm | 2.24 m/s, 181° | - | - |
| 1778019982 | -4.44° C | 90% | 1011.7 hPa | 0 mm | 1.34 m/s, 171° | - | - |
| 1778019681 | -4.44° C | 90% | 1011.8 hPa | 0 mm | 0.89 m/s, 183° | - | - |
| 1778019381 | -4.44° C | 90% | 1011.8 hPa | 0 mm | 0.45 m/s, 176° | - | - |
| 1778019082 | -4.44° C | 90% | 1011.8 hPa | 0 mm | 0.89 m/s, 189° | - | - |
| 1778018782 | -4.44° C | 90% | 1012 hPa | 0 mm | 0.89 m/s, 176° | - | - |
| 1778018481 | -3.89° C | 90% | 1012 hPa | 0 mm | 1.79 m/s, 195° | - | - |
| 1778018182 | -3.89° C | 90% | 1011.9 hPa | 0 mm | 1.79 m/s, 181° | - | - |
| 1778017882 | -3.89° C | 90% | 1011.8 hPa | 0 mm | 0.45 m/s, 215° | - | - |
| 1778017582 | -3.89° C | 90% | 1011.7 hPa | 0 mm | 1.34 m/s, 181° | - | - |
| 1778017330 | -4.44° C | 89% | 1011.7 hPa | 0 mm | 1.34 m/s, 192° | - | - |
| 1778017281 | -4.44° C | 89% | 1011.7 hPa | 0 mm | 1.34 m/s, 192° | - | - |
| 1778016981 | -4.44° C | 89% | 1011.7 hPa | 0 mm | 0.45 m/s, 188° | - | - |
| 1778016681 | -4.44° C | 89% | 1011.7 hPa | 0 mm | 0.45 m/s, 172° | - | - |
| 1778016381 | -4.44° C | 88% | 1011.8 hPa | 0 mm | 0.45 m/s, 174° | - | - |
* Rain latest hour (hover to see other rain measurements)
** Current wind speed in m/s (hover to see current wind gust speed)